This is the latest recevied weather packets stored in our database for station/object WE8L. If no packets are shown the sender has not sent any weather packets the latest 10 day(s).
| Time | Temp. | Humidity | Pressure | Rain* | Wind** | Luminosity | Snow |
|---|---|---|---|---|---|---|---|
| 1777996635 | 18.33° C | 73% | 1011.6 hPa | 0 mm | - | 34 W/m² | - |
| 1777996331 | 18.89° C | 73% | 1011.4 hPa | 0 mm | - | 25 W/m² | - |
| 1777996028 | 18.89° C | 72% | 1011.5 hPa | 0 mm | - | 26 W/m² | - |
| 1777995724 | 18.89° C | 72% | 1011.6 hPa | 0 mm | - | 31 W/m² | - |
| 1777995420 | 18.89° C | 72% | 1011.2 hPa | 0 mm | - | 43 W/m² | - |
| 1777995118 | 18.89° C | 73% | 1011.6 hPa | 0 mm | - | 45 W/m² | - |
| 1777994815 | 19.44° C | 72% | 1011.4 hPa | 0 mm | - | 56 W/m² | - |
| 1777994510 | 18.89° C | 73% | 1011.1 hPa | 0 mm | - | 108 W/m² | - |
| 1777994206 | 19.44° C | 72% | 1011.4 hPa | 0 mm | - | 129 W/m² | - |
| 1777993904 | 18.89° C | 73% | 1011.4 hPa | 0 mm | - | 130 W/m² | - |
| 1777993599 | 18.89° C | 74% | 1011.3 hPa | 0 mm | - | 134 W/m² | - |
| 1777993297 | 18.89° C | 76% | 1011.4 hPa | 0 mm | - | 153 W/m² | - |
| 1777992992 | 18.33° C | 79% | 1011.4 hPa | 0 mm | - | 205 W/m² | - |
| 1777992691 | 18.33° C | 80% | 1011.3 hPa | 0 mm | - | 230 W/m² | - |
| 1777992388 | 17.78° C | 83% | 1011.4 hPa | 0 mm | - | 238 W/m² | - |
| 1777992085 | 17.78° C | 84% | 1011.3 hPa | 0 mm | - | 187 W/m² | - |
| 1777991783 | 17.22° C | 84% | 1011.3 hPa | 0 mm | - | 192 W/m² | - |
| 1777991480 | 17.22° C | 87% | 1011.3 hPa | 0 mm | - | 239 W/m² | - |
| 1777991177 | 16.67° C | 88% | 1011.2 hPa | 0 mm | - | 152 W/m² | - |
| 1777990874 | 16.67° C | 89% | 1011.2 hPa | 0 mm | - | 100 W/m² | - |
| 1777990572 | 16.11° C | 88% | 1011 hPa | 0 mm | - | 102 W/m² | - |
| 1777989965 | 16.11° C | 90% | 1011 hPa | 0 mm | - | 100 W/m² | - |
| 1777989662 | 16.11° C | 91% | 1011 hPa | 0 mm | - | 142 W/m² | - |
| 1777989358 | 15.56° C | 92% | 1011 hPa | 0 mm | - | 168 W/m² | - |
| 1777989055 | 15.56° C | 93% | 1010.7 hPa | 0 mm | - | 85 W/m² | - |
* Rain latest hour (hover to see other rain measurements)
** Current wind speed in m/s (hover to see current wind gust speed)